Regional Weather Roundup
Issued by NWS

Home | Current Version | Previous Version | Text Only | Print | Product List | Glossary Off
Versions: 1 2 3 4 5 6 7 8 9 10 11 12 13 14 15 16 17 18 19 20 21 22 23 24 25 26 27 28 29 30 31 32 33 34 35 36 37 38 39 40 41 42 43 44 45 46 47 48 49 50

215
ASUS43 KLOT 211003
RWRIL

ILLINOIS REGIONAL WEATHER ROUNDUP
NATIONAL WEATHER SERVICE CHICAGO/ROMEOVILLE IL
400 AM CST TUE FEB 21 2017

NOTE: "FAIR" INDICATES FEW OR NO CLOUDS BELOW 12,000 FEET WITH NO
SIGNIFICANT WEATHER AND/OR OBSTRUCTIONS TO VISIBILITY.

* THESE STATIONS ARE NOT UNDER NWS QUALITY CONTROL. THEY ALSO MAY NOT
  REPORT WEATHER SUCH AS PRECIPITATION OR FOG.

ILZ001-002-007-009-015-016-024-211100-
NORTHWEST ILLINOIS

CITY           SKY/WX    TMP DP  RH WIND       PRES   REMARKS
MOLINE         CLOUDY    58  54  86 W5        29.90S
STERLING*      MOCLDY    55  54  96 CALM      29.90R
SAVANNA*       CLOUDY    54  54  99 W10       29.90R FOG
$$

ILZ003-004-008-010-011-017-018-211100-
NORTH CENTRAL ILLINOIS

CITY           SKY/WX    TMP DP  RH WIND       PRES   REMARKS
ROCKFORD       CLOUDY    55  53  93 S7        29.90S
FREEPORT*      CLOUDY    54  53  97 SW10      29.90R
ROCHELLE*      LGT RAIN  53  53  99 SW7       29.90S
DE KALB*       RAIN      51  51  99 S7        29.90F
PERU*          DRIZZLE   54  52  95 S6        29.92S
$$

ILZ005-006-012>014-019>023-211100-
NORTHEAST ILLINOIS

CITY           SKY/WX    TMP DP  RH WIND       PRES   REMARKS
CHICAGO-OHARE  LGT RAIN  56  50  80 SW5       29.90S
CHICAGO-MIDWAY LGT RAIN  56  47  71 S9        29.91F
AURORA         LGT RAIN  53  51  93 S5        29.91S FOG
LANSING*       CLOUDY    55  49  81 SW6       29.93S
JOLIET*        LGT RAIN  55  53  94 CALM      29.93R
WAUKEGAN       CLOUDY    53  50  89 S10       29.86F
DUPAGE AIRPORT LGT RAIN  52  48  86 S7        29.90F FOG
KANKAKEE*      CLOUDY    54  47  80 CALM      29.94R
WHEELING       LGT RAIN  54  50  86 S6        29.90F
MORRIS*        LGT RAIN  53  50  91 CALM      29.93R
ROMEOVILLE*    RAIN      52  52  99 S7        29.92S
NORTHERLY ISL    N/A     57  47  69 SW3         N/A
$$

LMZ740>746-211100-
SOUTHERN LAKE MICHIGAN

STATION/POSITION SKY/WX   TEMP    WIND        PRES    VSBY  WAVE
                          AIR SEA DIR/SP/G                  HT/PER
                          (F)     (DEG/KT/KT) (MB)    (MI)  (FT/S)
HARRISON CRIB              59     240/ 13/ 14   N/A
BURNHAM HARBOR             57     210/  6/  8   N/A
CALUMET HARBOR             57     200/  7/  8 1012.7S
BURNS HARBOR               55     190/ 12/ 16 1013.5F
MICHIGAN CITY              57     160/ 16/ 20   N/A
$$

ILZ025>027-034>036-040-047-049-050-058-095>099-211100-
WEST-CENTRAL ILLINOIS

CITY           SKY/WX    TMP DP  RH WIND       PRES   REMARKS
QUINCY         LGT RAIN  58  58 100 CALM      29.91S VSB 1/4
GALESBURG*     DRZL/FOG  56  56 100 S3        29.93R VSB 1
MACOMB*        RAIN      56  56 100 CALM      29.95R
JACKSONVILLE*  FOG       57  56  99 SE7       29.92S VSB 1/2
PITTSFIELD*    FOG       56  56 100 SE5       29.93F VSB 1/4
$$

ILZ028>032-037-038-041>044-048-051>054-059>061-211100-
CENTRAL ILLINOIS

CITY           SKY/WX    TMP DP  RH WIND       PRES   REMARKS
PONTIAC        LGT RAIN  55  54  98 W3        29.93S
BLOOMINGTON    LGT RAIN  55  53  93 CALM      29.94R
DECATUR        CLOUDY    59  50  72 W5        29.94R
PEORIA         LGT RAIN  56  56 100 CALM      29.93R
LACON*         LGT RAIN  54  54 100 CALM      29.92F
LINCOLN*       LGT RAIN  58  57  96 CALM      29.94R
SPRINGFIELD    LGT RAIN  57  56  96 CALM      29.94R FOG
TAYLORVILLE    NOT AVBL
$$

ILZ033-039-045-046-055>057-062-063-211100-
EAST-CENTRAL ILLINOIS

CITY           SKY/WX    TMP DP  RH WIND       PRES   REMARKS
CHAMPAIGN      CLOUDY    56  48  74 S6        29.94R
RANTOUL*       CLOUDY    55  50  85 CALM      29.95R
MATTOON        CLOUDY    57  49  74 S6        29.94R
PARIS*         CLOUDY    55  48  78 SE8       29.95S
$$

ILZ079-100>102-211100-
SOUTHWEST ILLINOIS

CITY           SKY/WX    TMP DP  RH WIND       PRES   REMARKS
ALTON          DRIZZLE   57  56  96 CALM      29.93S
BELLEVILLE     CLOUDY    56  56 100 CALM      29.91F
CAHOKIA*       LGT RAIN  58  55  90 NW3       29.91F FOG
SPARTA*        CLOUDY    58  52  81 CALM      29.94R
$$

ILZ064>066-069>071-074>076-080>082-084>086-088>090-092>094-211100-
SOUTH-CENTRAL ILLINOIS

CITY           SKY/WX    TMP DP  RH WIND       PRES   REMARKS
CARBONDALE     CLOUDY    58  50  75 NW6       29.93R
CAIRO*         MOCLDY    56  51  81 CALM      29.91S
EFFINGHAM*     MOCLDY    55  50  85 CALM      29.96R
MARION         CLOUDY    59  46  63 CALM      29.94S
MT. VERNON     CLOUDY    55  50  83 CALM      29.94S
CENTRALIA*     CLOUDY    59  52  78 SE8       29.92F
SALEM*         CLOUDY    58  51  77 CALM      29.91F
METROPOLIS*    CLOUDY    56  49  76 CALM      29.94S
$$

ILZ067-068-072-073-078-083-087-091-211100-
SOUTHEAST ILLINOIS

CITY           SKY/WX    TMP DP  RH WIND       PRES   REMARKS
LAWRENCEVILLE  CLOUDY    54  45  71 CALM      29.96S
FLORA*         CLOUDY    55  49  80 SE5       29.93F
FAIRFIELD*     CLOUDY    56  49  78 CALM      29.93S
HARRISBURG*    CLOUDY    57  50  78 SE3       29.94S
ROBINSON*      MOCLDY    48  45  90 SE3       29.96S
CARMI*         MOCLDY    54  49  82 SE3       29.94S HAZE
$$

ABBREVIATIONS USED IN REMARKS
   TC - TEMPERATURE IN CELSIUS
  WCI - WIND CHILL INDEX
   HX - HEAT INDEX
  VSB - VISIBILITY
$$





USA.gov is the U.S. government's official web portal to all federal, state and local government web resources and services.